WZZ411 LHBP-LATI

Flight info

Callsign WZZ411
Flight time 1h 8m
Altitude 37000
Route FAHAZ DCT KEROP DCT TORTO/N0440F360 DCT YUYUH/N0442F370 DCT AKIKA DCT INLOT
Aircraft A321/M-SDE1E2E3FGIJ1J4RWXY/LB1

Departure

Time 2026-05-04 20:19
Airport Budapest Liszt Ferenc International Airport (LHBP)

Arrival

Time 2026-05-04 21:28
Airport Tirana International Airport Mother Teresa (LATI)
Time Latitude Longitude Altitude Speed Heading
2026-05-04 20:08 47.43349 19.26703 458 ft 0 kts 222°
2026-05-04 20:13 47.43351 19.26706 458 ft 3 kts 223°
2026-05-04 20:13 47.43370 19.26734 455 ft 4 kts 232°
2026-05-04 20:13 47.43384 19.26767 455 ft 4 kts 253°
2026-05-04 20:14 47.43385 19.26801 455 ft 4 kts 305°
2026-05-04 20:14 47.43382 19.26807 456 ft 0 kts 312°
2026-05-04 20:15 47.43391 19.26793 454 ft 4 kts 313°
2026-05-04 20:16 47.43420 19.26748 458 ft 8 kts 314°
2026-05-04 20:16 47.43467 19.26674 458 ft 12 kts 313°
2026-05-04 20:16 47.43533 19.26570 458 ft 16 kts 314°
2026-05-04 20:16 47.43617 19.26440 458 ft 18 kts 314°
2026-05-04 20:17 47.43716 19.26383 458 ft 16 kts 25°
2026-05-04 20:17 47.43816 19.26398 458 ft 15 kts 327°
2026-05-04 20:17 47.43884 19.26275 458 ft 16 kts 308°
2026-05-04 20:17 47.43976 19.26234 459 ft 12 kts 31°
2026-05-04 20:18 47.44018 19.26289 461 ft 7 kts 49°
2026-05-04 20:18 47.44044 19.26344 464 ft 7 kts 60°
2026-05-04 20:18 47.44058 19.26489 470 ft 25 kts 105°
2026-05-04 20:18 47.43814 19.26944 474 ft 92 kts 133°
2026-05-04 20:19 47.43239 19.27867 463 ft 153 kts 132°
2026-05-04 20:19 47.42459 19.29121 896 ft 167 kts 133°
2026-05-04 20:19 47.41843 19.30608 1629 ft 172 kts 116°
2026-05-04 20:19 47.41328 19.32225 2036 ft 184 kts 123°
2026-05-04 20:20 47.40650 19.33958 2222 ft 206 kts 125°
2026-05-04 20:20 47.39861 19.35908 2401 ft 231 kts 124°
2026-05-04 20:20 47.39028 19.37990 2941 ft 241 kts 124°
2026-05-04 20:20 47.38004 19.40050 3519 ft 253 kts 142°
2026-05-04 20:21 47.36466 19.41219 4163 ft 256 kts 169°
2026-05-04 20:21 47.34679 19.41688 4968 ft 259 kts 172°
2026-05-04 20:21 47.31080 19.42566 6481 ft 269 kts 172°
2026-05-04 20:22 47.29216 19.43018 7205 ft 273 kts 172°
2026-05-04 20:22 47.27328 19.43479 7968 ft 276 kts 172°
2026-05-04 20:22 47.25427 19.43944 8756 ft 278 kts 171°
2026-05-04 20:22 47.23502 19.44415 9554 ft 281 kts 171°
2026-05-04 20:23 47.21568 19.44888 10277 ft 286 kts 171°
2026-05-04 20:23 47.19527 19.45386 10508 ft 309 kts 171°
2026-05-04 20:23 47.17336 19.45924 10765 ft 328 kts 171°
2026-05-04 20:23 47.15059 19.46483 11333 ft 335 kts 171°
2026-05-04 20:24 47.12749 19.47047 12016 ft 339 kts 171°
2026-05-04 20:24 47.10411 19.47615 12709 ft 342 kts 171°
2026-05-04 20:24 47.08049 19.48187 13388 ft 346 kts 171°
2026-05-04 20:24 47.05662 19.48765 14050 ft 350 kts 171°
2026-05-04 20:25 47.03215 19.49361 14656 ft 354 kts 171°
2026-05-04 20:25 47.00809 19.49951 15253 ft 357 kts 171°
2026-05-04 20:25 46.98340 19.50553 15862 ft 361 kts 171°
2026-05-04 20:25 46.95821 19.51165 16497 ft 365 kts 171°
2026-05-04 20:26 46.93334 19.51771 17073 ft 370 kts 171°
2026-05-04 20:26 46.90781 19.52391 17637 ft 374 kts 171°
2026-05-04 20:26 46.88197 19.53014 18211 ft 379 kts 171°
2026-05-04 20:26 46.85580 19.53643 18728 ft 383 kts 170°
2026-05-04 20:27 46.82932 19.54283 19207 ft 388 kts 170°
2026-05-04 20:27 46.80247 19.54932 19745 ft 391 kts 171°
2026-05-04 20:27 46.77554 19.55582 20299 ft 394 kts 171°
2026-05-04 20:27 46.74833 19.56237 20831 ft 398 kts 171°
2026-05-04 20:28 46.72090 19.56897 21358 ft 401 kts 171°
2026-05-04 20:28 46.69327 19.57562 21909 ft 404 kts 171°
2026-05-04 20:28 46.66540 19.58230 22439 ft 408 kts 171°
2026-05-04 20:28 46.63729 19.58904 22950 ft 411 kts 171°
2026-05-04 20:29 46.60892 19.59584 23450 ft 415 kts 171°
2026-05-04 20:29 46.58035 19.60269 23885 ft 418 kts 171°
2026-05-04 20:29 46.55156 19.60957 24281 ft 421 kts 171°
2026-05-04 20:29 46.52253 19.61651 24677 ft 424 kts 171°
2026-05-04 20:30 46.49334 19.62352 25064 ft 427 kts 171°
2026-05-04 20:30 46.46388 19.63057 25451 ft 430 kts 171°
2026-05-04 20:30 46.43426 19.63759 25834 ft 433 kts 171°
2026-05-04 20:30 46.40443 19.64462 26213 ft 436 kts 171°
2026-05-04 20:31 46.37431 19.65173 26539 ft 440 kts 171°
2026-05-04 20:31 46.34399 19.65890 26891 ft 443 kts 171°
2026-05-04 20:31 46.31345 19.66611 27252 ft 446 kts 171°
2026-05-04 20:31 46.28269 19.67338 27611 ft 449 kts 171°
2026-05-04 20:32 46.25170 19.68073 27966 ft 452 kts 171°
2026-05-04 20:32 46.22055 19.68810 28335 ft 455 kts 171°
2026-05-04 20:32 46.18917 19.69510 28673 ft 458 kts 174°
2026-05-04 20:32 46.15729 19.69720 29007 ft 460 kts 180°
2026-05-04 20:33 46.12519 19.69761 29340 ft 463 kts 180°
2026-05-04 20:33 46.09286 19.69804 29675 ft 466 kts 180°
2026-05-04 20:33 46.06036 19.69847 29989 ft 468 kts 180°
2026-05-04 20:33 46.02768 19.69889 30291 ft 471 kts 180°
2026-05-04 20:34 45.99485 19.69934 30591 ft 473 kts 180°
2026-05-04 20:34 45.96187 19.69987 30900 ft 475 kts 180°
2026-05-04 20:34 45.92880 19.70039 31209 ft 476 kts 180°
2026-05-04 20:34 45.89569 19.70087 31574 ft 476 kts 180°
2026-05-04 20:35 45.86263 19.70134 32005 ft 474 kts 180°
2026-05-04 20:35 45.82971 19.70182 32442 ft 473 kts 180°
2026-05-04 20:35 45.79689 19.70231 32857 ft 471 kts 180°
2026-05-04 20:35 45.76411 19.70277 33282 ft 470 kts 180°
2026-05-04 20:36 45.73145 19.70319 33690 ft 469 kts 180°
2026-05-04 20:36 45.69892 19.70360 34090 ft 467 kts 180°
2026-05-04 20:36 45.66644 19.70404 34452 ft 466 kts 180°
2026-05-04 20:36 45.63403 19.70451 34771 ft 466 kts 180°
2026-05-04 20:37 45.60167 19.70501 35093 ft 465 kts 180°
2026-05-04 20:37 45.56933 19.70552 35418 ft 464 kts 180°
2026-05-04 20:37 45.53706 19.70601 35744 ft 463 kts 180°
2026-05-04 20:37 45.50484 19.70643 36070 ft 463 kts 180°
2026-05-04 20:38 45.47271 19.70684 36383 ft 462 kts 180°
2026-05-04 20:38 45.44058 19.70725 36677 ft 461 kts 181°
2026-05-04 20:38 45.40849 19.70770 36956 ft 461 kts 181°
2026-05-04 20:38 45.37641 19.70817 37055 ft 461 kts 181°
2026-05-04 20:39 45.31236 19.70914 37066 ft 460 kts 180°
2026-05-04 20:39 45.24839 19.70996 37067 ft 460 kts 180°
2026-05-04 20:40 45.18438 19.71077 37068 ft 460 kts 180°
2026-05-04 20:40 45.12034 19.71170 37069 ft 460 kts 180°
2026-05-04 20:41 45.05625 19.71262 37074 ft 461 kts 180°
2026-05-04 20:41 45.00297 19.71334 37079 ft 461 kts 180°
2026-05-04 20:42 44.93880 19.71418 37080 ft 461 kts 180°
2026-05-04 20:42 44.87460 19.71509 37086 ft 461 kts 180°
2026-05-04 20:43 44.81034 19.71596 37073 ft 461 kts 181°
2026-05-04 20:43 44.74611 19.71691 37090 ft 462 kts 180°
2026-05-04 20:44 44.68181 19.71782 37087 ft 462 kts 181°
2026-05-04 20:44 44.61758 19.71869 37077 ft 462 kts 181°
2026-05-04 20:45 44.55329 19.71952 37082 ft 462 kts 181°
2026-05-04 20:45 44.48902 19.72027 37086 ft 462 kts 181°
2026-05-04 20:46 44.42479 19.72116 37083 ft 462 kts 181°
2026-05-04 20:46 44.36050 19.72210 37088 ft 462 kts 181°
2026-05-04 20:47 44.29621 19.72301 37093 ft 462 kts 181°
2026-05-04 20:47 44.23186 19.72387 37089 ft 462 kts 181°
2026-05-04 20:48 44.16795 19.72462 37101 ft 462 kts 181°
2026-05-04 20:48 44.10357 19.72549 37109 ft 463 kts 181°
2026-05-04 20:49 44.03925 19.72642 37107 ft 463 kts 181°
2026-05-04 20:49 43.97479 19.72734 37107 ft 463 kts 181°
2026-05-04 20:50 43.91035 19.72820 37109 ft 463 kts 181°
2026-05-04 20:50 43.84589 19.72902 37111 ft 463 kts 181°
2026-05-04 20:51 43.78137 19.72983 37116 ft 464 kts 181°
2026-05-04 20:51 43.71675 19.73062 37125 ft 465 kts 181°
2026-05-04 20:52 43.65233 19.72737 37138 ft 462 kts 191°
2026-05-04 20:52 43.58883 19.71344 37134 ft 462 kts 191°
2026-05-04 20:53 43.52522 19.69967 37145 ft 463 kts 191°
2026-05-04 20:53 43.46412 19.68649 36919 ft 463 kts 191°
2026-05-04 20:54 43.43229 19.67965 36647 ft 464 kts 191°
2026-05-04 20:54 43.40037 19.67283 36013 ft 466 kts 191°
2026-05-04 20:54 43.36800 19.66589 35095 ft 474 kts 191°
2026-05-04 20:54 43.33546 19.65886 34615 ft 471 kts 191°
2026-05-04 20:55 43.30308 19.65187 34057 ft 471 kts 191°
2026-05-04 20:55 43.27070 19.64495 33512 ft 468 kts 191°
2026-05-04 20:55 43.23856 19.63866 32994 ft 466 kts 186°
2026-05-04 20:55 43.20628 19.63661 32498 ft 463 kts 183°
2026-05-04 20:56 43.17422 19.63507 31991 ft 460 kts 183°
2026-05-04 20:56 43.14236 19.63353 31487 ft 457 kts 183°
2026-05-04 20:56 43.11113 19.63202 30999 ft 454 kts 183°
2026-05-04 20:56 43.07970 19.63050 30498 ft 451 kts 183°
2026-05-04 20:57 43.04845 19.62898 29979 ft 448 kts 183°
2026-05-04 20:57 43.01743 19.62744 29488 ft 444 kts 183°
2026-05-04 20:57 42.98674 19.62588 29008 ft 439 kts 183°
2026-05-04 20:57 42.95638 19.62434 28555 ft 435 kts 183°
2026-05-04 20:58 42.92625 19.62286 28088 ft 431 kts 183°
2026-05-04 20:58 42.89603 19.62140 27642 ft 427 kts 183°
2026-05-04 20:58 42.86687 19.61999 27212 ft 424 kts 183°
2026-05-04 20:58 42.83753 19.61855 26783 ft 421 kts 183°
2026-05-04 20:59 42.80839 19.61715 26359 ft 418 kts 183°
2026-05-04 20:59 42.77944 19.61580 25936 ft 415 kts 183°
2026-05-04 20:59 42.75065 19.61443 25515 ft 413 kts 183°
2026-05-04 20:59 42.72200 19.61304 25100 ft 411 kts 182°
2026-05-04 21:00 42.69349 19.61165 24662 ft 410 kts 182°
2026-05-04 21:00 42.66503 19.61024 24242 ft 408 kts 182°
2026-05-04 21:00 42.63672 19.60887 23809 ft 406 kts 182°
2026-05-04 21:00 42.60854 19.60751 23327 ft 404 kts 182°
2026-05-04 21:01 42.58058 19.60615 22867 ft 401 kts 182°
2026-05-04 21:01 42.55285 19.60478 22422 ft 397 kts 182°
2026-05-04 21:01 42.52548 19.60149 21966 ft 393 kts 191°
2026-05-04 21:01 42.49877 19.59418 21510 ft 390 kts 192°
2026-05-04 21:02 42.47232 19.58689 21070 ft 387 kts 192°
2026-05-04 21:02 42.44604 19.57971 20618 ft 384 kts 192°
2026-05-04 21:02 42.41990 19.57258 20170 ft 382 kts 192°
2026-05-04 21:02 42.39388 19.56548 19722 ft 380 kts 192°
2026-05-04 21:03 42.36809 19.55844 19279 ft 377 kts 192°
2026-05-04 21:03 42.34243 19.55143 18835 ft 375 kts 191°
2026-05-04 21:03 42.31693 19.54447 18382 ft 373 kts 191°
2026-05-04 21:03 42.29158 19.53755 17908 ft 370 kts 191°
2026-05-04 21:04 42.26647 19.53071 17472 ft 366 kts 191°
2026-05-04 21:04 42.24164 19.52397 17036 ft 363 kts 191°
2026-05-04 21:04 42.21697 19.51729 16603 ft 360 kts 191°
2026-05-04 21:04 42.19252 19.51067 16178 ft 357 kts 191°
2026-05-04 21:05 42.16821 19.50407 15751 ft 355 kts 191°
2026-05-04 21:05 42.14407 19.49751 15333 ft 353 kts 191°
2026-05-04 21:05 42.12009 19.49098 14910 ft 351 kts 191°
2026-05-04 21:05 42.09623 19.48448 14489 ft 349 kts 191°
2026-05-04 21:06 42.07244 19.47803 14069 ft 348 kts 190°
2026-05-04 21:06 42.04877 19.47166 13626 ft 346 kts 190°
2026-05-04 21:06 42.02523 19.46533 13208 ft 343 kts 190°
2026-05-04 21:06 42.00221 19.45913 12790 ft 340 kts 191°
2026-05-04 21:07 41.97894 19.45549 12394 ft 335 kts 178°
2026-05-04 21:07 41.95596 19.45859 11988 ft 330 kts 168°
2026-05-04 21:07 41.93341 19.46414 11582 ft 328 kts 168°
2026-05-04 21:07 41.91066 19.46964 11171 ft 326 kts 168°
2026-05-04 21:08 41.88836 19.47493 10770 ft 325 kts 168°
2026-05-04 21:08 41.86618 19.48015 10360 ft 322 kts 168°
2026-05-04 21:08 41.84459 19.48523 10079 ft 315 kts 168°
2026-05-04 21:08 41.82339 19.49025 9918 ft 304 kts 168°
2026-05-04 21:09 41.80276 19.49515 9566 ft 301 kts 168°
2026-05-04 21:09 41.78208 19.50005 9179 ft 299 kts 168°
2026-05-04 21:09 41.76172 19.50488 8819 ft 297 kts 168°
2026-05-04 21:09 41.74146 19.50968 8454 ft 295 kts 168°
2026-05-04 21:10 41.72126 19.51446 8064 ft 294 kts 168°
2026-05-04 21:10 41.70118 19.51924 7705 ft 293 kts 168°
2026-05-04 21:10 41.68118 19.52400 7346 ft 291 kts 168°
2026-05-04 21:10 41.66214 19.53191 6998 ft 285 kts 148°
2026-05-04 21:11 41.64781 19.54950 6647 ft 279 kts 121°
2026-05-04 21:11 41.64094 19.57324 6204 ft 275 kts 96°
2026-05-04 21:11 41.64149 19.59918 5431 ft 286 kts 83°
2026-05-04 21:11 41.64363 19.62607 4785 ft 294 kts 83°
2026-05-04 21:12 41.64569 19.65292 4539 ft 285 kts 85°
2026-05-04 21:12 41.64285 19.67832 4384 ft 275 kts 115°
2026-05-04 21:12 41.63049 19.69707 4085 ft 272 kts 149°
2026-05-04 21:12 41.61261 19.70466 3738 ft 271 kts 172°
2026-05-04 21:13 41.59382 19.70600 3378 ft 270 kts 180°
2026-05-04 21:13 41.57504 19.70563 3040 ft 268 kts 181°
2026-05-04 21:13 41.55683 19.70549 2998 ft 254 kts 179°
2026-05-04 21:13 41.53977 19.70607 3001 ft 237 kts 178°
2026-05-04 21:14 41.52371 19.70724 3007 ft 228 kts 176°
2026-05-04 21:14 41.50796 19.70881 3010 ft 227 kts 175°
2026-05-04 21:14 41.49227 19.71060 3011 ft 226 kts 174°
2026-05-04 21:14 41.47663 19.71252 3011 ft 226 kts 174°
2026-05-04 21:15 41.46098 19.71451 3011 ft 226 kts 174°
2026-05-04 21:15 41.44534 19.71655 3011 ft 226 kts 174°
2026-05-04 21:15 41.42970 19.71860 3010 ft 226 kts 174°
2026-05-04 21:15 41.41407 19.72069 3011 ft 226 kts 174°
2026-05-04 21:16 41.39865 19.72281 3010 ft 226 kts 174°
2026-05-04 21:16 41.38301 19.72498 3011 ft 226 kts 174°
2026-05-04 21:16 41.36738 19.72715 3011 ft 226 kts 174°
2026-05-04 21:16 41.35156 19.72934 3010 ft 226 kts 174°
2026-05-04 21:17 41.33593 19.73150 3012 ft 226 kts 174°
2026-05-04 21:17 41.32029 19.73367 3011 ft 226 kts 174°
2026-05-04 21:17 41.30485 19.73556 3009 ft 226 kts 179°
2026-05-04 21:17 41.28894 19.73595 3010 ft 225 kts 178°
2026-05-04 21:18 41.27370 19.73267 3004 ft 224 kts 210°
2026-05-04 21:18 41.26364 19.71746 3010 ft 224 kts 252°
2026-05-04 21:18 41.26097 19.69701 3014 ft 226 kts 263°
2026-05-04 21:18 41.25817 19.67679 3009 ft 226 kts 249°
2026-05-04 21:19 41.25161 19.65783 3007 ft 226 kts 242°
2026-05-04 21:19 41.24377 19.63941 3006 ft 226 kts 233°
2026-05-04 21:19 41.23177 19.62709 3009 ft 224 kts 203°
2026-05-04 21:19 41.21727 19.61925 3008 ft 225 kts 200°
2026-05-04 21:20 41.20259 19.61195 3007 ft 225 kts 200°
2026-05-04 21:20 41.18793 19.60476 3008 ft 225 kts 200°
2026-05-04 21:20 41.17325 19.59750 3007 ft 225 kts 201°
2026-05-04 21:20 41.16044 19.58599 3001 ft 225 kts 231°
2026-05-04 21:21 41.15401 19.56732 3000 ft 225 kts 263°
2026-05-04 21:21 41.15585 19.54693 3002 ft 225 kts 294°
2026-05-04 21:21 41.16433 19.53176 3002 ft 225 kts 323°
2026-05-04 21:21 41.17849 19.52349 3003 ft 225 kts 354°
2026-05-04 21:22 41.19386 19.52585 3006 ft 224 kts 21°
2026-05-04 21:22 41.20718 19.53628 3009 ft 222 kts 45°
2026-05-04 21:22 41.21718 19.55113 3012 ft 212 kts 51°
2026-05-04 21:22 41.22626 19.56641 3004 ft 209 kts 54°
2026-05-04 21:23 41.23479 19.58204 3005 ft 209 kts 55°
2026-05-04 21:23 41.24320 19.59772 3005 ft 208 kts 55°
2026-05-04 21:23 41.25162 19.61341 2957 ft 209 kts 55°
2026-05-04 21:23 41.26002 19.62909 2794 ft 208 kts 55°
2026-05-04 21:24 41.26836 19.64468 2592 ft 206 kts 55°
2026-05-04 21:24 41.27669 19.66018 2390 ft 206 kts 55°
2026-05-04 21:24 41.28480 19.67524 2219 ft 192 kts 55°
2026-05-04 21:24 41.29208 19.68873 2072 ft 169 kts 55°
2026-05-04 21:25 41.29850 19.70063 1950 ft 152 kts 56°
2026-05-04 21:25 41.30456 19.71181 1815 ft 147 kts 53°
2026-05-04 21:25 41.31206 19.72080 1692 ft 145 kts 31°
2026-05-04 21:25 41.32131 19.72607 1554 ft 145 kts 17°
2026-05-04 21:26 41.33115 19.72870 1351 ft 144 kts
2026-05-04 21:26 41.34117 19.72941 1170 ft 144 kts 359°
2026-05-04 21:26 41.35116 19.72865 1023 ft 144 kts 355°
2026-05-04 21:26 41.36113 19.72716 892 ft 144 kts 353°
2026-05-04 21:27 41.37109 19.72557 782 ft 144 kts 355°
2026-05-04 21:27 41.38105 19.72428 626 ft 144 kts 359°
2026-05-04 21:27 41.39088 19.72323 415 ft 143 kts 358°
2026-05-04 21:27 41.40079 19.72211 233 ft 143 kts
2026-05-04 21:28 41.41039 19.72112 134 ft 125 kts 353°
2026-05-04 21:28 41.41661 19.72024 123 ft 36 kts 353°
2026-05-04 21:28 41.41782 19.72007 121 ft 9 kts 357°
2026-05-04 21:28 41.41815 19.72004 124 ft 4 kts 356°
2026-05-04 21:29 41.41846 19.71999 124 ft 8 kts 342°
2026-05-04 21:29 41.41876 19.71938 121 ft 9 kts 278°
2026-05-04 21:29 41.41873 19.71865 120 ft 3 kts 264°
2026-05-04 21:29 41.41871 19.71841 124 ft 1 kts 264°
2026-05-04 21:30 41.41871 19.71836 124 ft 3 kts 264°
2026-05-04 21:30 41.41867 19.71786 124 ft 7 kts 265°
2026-05-04 21:30 41.41863 19.71722 124 ft 1 kts 265°
2026-05-04 21:30 41.41861 19.71692 124 ft 4 kts 265°
2026-05-04 21:31 41.41867 19.71613 120 ft 7 kts 301°
2026-05-04 21:31 41.41914 19.71586 122 ft 8 kts 352°
2026-05-04 21:31 41.41966 19.71579 122 ft 7 kts 354°
2026-05-04 21:32 41.41988 19.71546 121 ft 4 kts 281°
2026-05-04 21:32 41.41987 19.71522 122 ft 2 kts 267°
2026-05-04 21:32 41.41987 19.71517 119 ft 0 kts 266°